This is the latest recevied weather packets stored in our database for station/object SV1JSO-13. If no packets are shown the sender has not sent any weather packets the latest 10 day(s).
| Time | Temp. | Humidity | Pressure | Rain* | Wind** | Luminosity | Snow |
|---|---|---|---|---|---|---|---|
| 1788338700 | 33.33° C | 24% | 1009.4 hPa | 0 mm | - | 652 W/m² | - |
| 1788338400 | 33.33° C | 24% | 1009.3 hPa | 0 mm | - | 637 W/m² | - |
| 1788338100 | 33.33° C | 24% | 1009.5 hPa | 0 mm | - | 627 W/m² | - |
| 1788337800 | 33.33° C | 24% | 1009.6 hPa | 0 mm | - | 622 W/m² | - |
| 1788337500 | 33.33° C | 24% | 1009.4 hPa | 0 mm | - | 613 W/m² | - |
| 1788337200 | 33.33° C | 24% | 1009.5 hPa | 0 mm | - | 599 W/m² | - |
| 1788336900 | 33.33° C | 25% | 1009.6 hPa | 0 mm | - | 587 W/m² | - |
| 1788336600 | 33.33° C | 24% | 1009.4 hPa | 0 mm | - | 577 W/m² | - |
| 1788336300 | 32.78° C | 24% | 1009.6 hPa | 0 mm | - | 561 W/m² | - |
| 1788336000 | 33.33° C | 24% | 1009.6 hPa | 0 mm | - | 552 W/m² | - |
| 1788335700 | 32.78° C | 24% | 1009.4 hPa | 0 mm | - | 537 W/m² | - |
| 1788335400 | 33.33° C | 24% | 1009.5 hPa | 0 mm | - | 527 W/m² | - |
| 1788335100 | 32.78° C | 24% | 1009.5 hPa | 0 mm | - | 524 W/m² | - |
| 1788334800 | 32.78° C | 24% | 1009.5 hPa | 0 mm | - | 512 W/m² | - |
| 1788334500 | 32.78° C | 24% | 1009.4 hPa | 0 mm | - | 500 W/m² | - |
| 1788334200 | 32.78° C | 25% | 1009.4 hPa | 0 mm | - | 488 W/m² | - |
| 1788333900 | 32.78° C | 24% | 1009.2 hPa | 0 mm | - | 469 W/m² | - |
| 1788333600 | 32.78° C | 24% | 1009.4 hPa | 0 mm | - | 451 W/m² | - |
| 1788333300 | 32.78° C | 25% | 1009.3 hPa | 0 mm | - | 440 W/m² | - |
| 1788333000 | 32.22° C | 25% | 1009.3 hPa | 0 mm | - | 427 W/m² | - |
| 1788332700 | 32.22° C | 25% | 1009.2 hPa | 0 mm | - | 415 W/m² | - |
| 1788332400 | 32.22° C | 26% | 1009.2 hPa | 0 mm | - | 402 W/m² | - |
| 1788332100 | 31.11° C | 32% | 1009.2 hPa | 0 mm | - | 384 W/m² | - |
| 1788331800 | 31.11° C | 38% | 1009.3 hPa | 0 mm | - | 370 W/m² | - |
| 1788331500 | 31.11° C | 39% | 1009.2 hPa | 0 mm | - | 352 W/m² | - |
* Rain latest hour (hover to see other rain measurements)
** Current wind speed in m/s (hover to see current wind gust speed)